Regional Weather Roundup
Issued by NWS Sioux Falls, SD

Home | Current Version | Previous Version | Text Only | Print | Product List | Glossary Off
Versions: 1 2 3 4 5 6 7 8 9 10 11 12 13 14 15 16 17 18 19 20 21 22 23 24 25 26 27 28 29 30 31 32 33 34 35 36 37 38 39 40 41 42 43 44 45 46 47 48 49 50

000
ASUS43 KFSD 251302
RWRFSD

WEATHER ROUNDUP FOR SE SOUTH DAKOTA/SW MINNESOTA/NW IOWA
NATIONAL WEATHER SERVICE SIOUX FALLS SD
800 AM CDT TUE APR 25 2017

NOTE: "FAIR" INDICATES FEW OR NO CLOUDS BELOW 12,000 FEET WITH NO
SIGNIFICANT WEATHER AND OR OBSTRUCTIONS TO VISIBILITY.


SDZ038>040-050-052>070-251400-
SOUTHEAST SOUTH DAKOTA

CITY           SKY/WX    TMP DP  RH WIND       PRES   REMARKS
BROOKINGS      CLOUDY    36  34  92 N15       29.59R
CHAMBERLAIN    CLOUDY    37  35  90 NW12G17   29.66R
HURON          CLOUDY    34  33  96 N17G23    29.67R WCI  23
MADISON        CLOUDY    36  36 100 N15       29.59R
MITCHELL       CLOUDY    37  34  89 N20G25    29.65R
SIOUX FALLS    CLOUDY    41  39  93 N12       29.59R
WINNER         CLOUDY    37  34  89 N14       29.66R
YANKTON        CLOUDY    39  36  87 NW8       29.66R
$$

MNZ071-072-080-081-089-090-097-098-251400-
SOUTHWEST MINNESOTA

CITY           SKY/WX    TMP DP  RH WIND       PRES   REMARKS
FAIRMONT       CLOUDY    41  40  96 NW14      29.56R FOG
JACKSON        FOG       37  37 100 N9        29.55R VSB 3/4
LUVERNE        CLOUDY    37  34  87 N12       29.57R
MARSHALL       CLOUDY    36  35  96 N16G24    29.58S FOG
MONTEVIDEO     CLOUDY    36  36 100 N16       29.59R
PIPESTONE      FOG       37  34  87 N12       29.56R VSB 1
REDWOOD FALLS  CLOUDY    39  37  92 NW9       29.55F
TRACY          CLOUDY    37  37 100 N16G22    29.57S FOG
WINDOM         FOG       39  37  93 NW16      29.56R VSB 1/4
WORTHINGTON    FOG       38  37  97 N16       29.56R VSB 1
$$

IAZ001>003-012>014-020>022-031-032-NEZ013-014-SDZ071-251400-
NORTHWEST IOWA

CITY           SKY/WX    TMP DP  RH WIND       PRES   REMARKS
CHEROKEE       CLOUDY    45  43  93 N7        29.55R
DENISON        CLOUDY    46  43  87 NE5       29.53S
ESTHERVILLE    CLOUDY    40  40 100 N13       29.54S FOG
LE MARS        CLOUDY    43  39  87 NW8       29.60R
ORANGE CITY    CLOUDY    43  41  93 N15       29.55S
SHELDON        CLOUDY    41  39  93 N12       29.57R
SIOUX CITY     CLOUDY    43  40  89 N6        29.59R
SPENCER        CLOUDY    41  39  93 N12       29.56R
STORM LAKE     PTSUNNY   43  41  93 N10       29.54R
$$

ABBREVIATIONS USED IN REMARKS
   TC - TEMPERATURE IN CELSIUS
  WCI - WIND CHILL INDEX
   HX - HEAT INDEX
  VSB - VISIBILITY




USA.gov is the U.S. government's official web portal to all federal, state and local government web resources and services.